This demonstration page uses our WeatherBlox Daily Observations layout. Learn more.

Left ArrowRight Arrow

Hourly Observations for March 19, 2019

Temp ( °F °C ) Dew Point ( °F °C ) Humidity (%) Winds ( mph kmh ) Pressure ( in mb ) Visibility ( mi km ) Precip ( " mm )
12:51 am 00:51 Clear 50 10 36 2.2 59 59 ESE 7 11 30.01 1016 10 16 N/A
1:51 am 01:51 Clear 50 10 36 2.2 59 59 E 8 13 30.01 1016 10 16 N/A
2:51 am 02:51 Clear 54 12.2 33 0.6 45 45 E 12 19 29.99 1016 10 16 N/A
3:51 am 03:51 Clear 47 8.3 35 1.7 63 63 SSE 8 13 30.00 1016 10 16 N/A
4:51 am 04:51 Clear 50 10 34 1.1 54 54 ESE 9 15 30.01 1016 10 16 N/A
5:51 am 05:51 Clear 49 9.4 34 1.1 56 56 ESE 10 17 30.02 1017 10 16 N/A
6:51 am 06:51 Sunny 50 10 34 1.1 54 54 SE 13 20 30.04 1017 10 16 N/A
7:51 am 07:51 Sunny 54 12.2 34 1.1 47 47 SE 14 22 30.06 1018 10 16 N/A
8:51 am 08:51 Sunny 58 14.4 34 1.1 41 41 SE 15 24 30.07 1018 10 16 N/A
9:51 am 09:51 Sunny 62 16.7 35 1.7 37 37 ESE 10 17 30.07 1018 10 16 N/A
10:51 am 10:51 Sunny 65 18.3 34 1.1 32 32 ESE 9 15 30.05 1018 10 16 N/A
11:51 am 11:51 Sunny 69 20.6 33 0.6 26 26 E 8 13 30.01 1016 10 16 N/A
12:51 pm 12:51 Sunny 71 21.7 32 undefined 24 24 S 8 13 29.98 1015 10 16 N/A
1:51 pm 13:51 Sunny 71 21.7 30 -1.1 22 22 S 8 13 29.94 1014 10 16 N/A
2:51 pm 14:51 Sunny 73 22.8 27 -2.8 18 18 SW 5 7 29.91 1013 10 16 N/A
3:51 pm 15:51 Sunny 73 22.8 26 -3.3 17 17 VRB 6 9 29.91 1013 10 16 N/A
4:51 pm 16:51 Sunny 73 22.8 27 -2.8 18 18 VRB 6 9 29.88 1012 10 16 N/A
5:51 pm 17:51 Sunny 72 22.2 27 -2.8 19 19 W 3 6 29.88 1012 10 16 N/A
6:51 pm 18:51 Clear 68 20 30 -1.1 24 24 S 3 6 29.90 1013 10 16 N/A
7:51 pm 19:51 Clear 58 14.4 37 2.8 46 46 NNE 3 6 29.92 1013 10 16 N/A
8:51 pm 20:51 Clear 57 13.9 36 2.2 45 45 ENE 7 11 29.93 1013 10 16 N/A
9:51 pm 21:51 Clear 56 13.3 36 2.2 47 47 E 7 11 29.94 1014 10 16 N/A
10:51 pm 22:51 Cloudy 56 13.3 37 2.8 49 49 E 5 7 29.93 1014 10 16 N/A
11:51 pm 23:51 Clear 52 11.1 37 2.8 57 57 N N/A 29.93 1014 10 16 N/A

Powered by AerisWeather